De Soto, IL

12:13 PM CST on December 03, 2016 (GMT -0600)
Southern Illinois

Weather History for KMDH - March, 2013

Change the Weather History Date:

Wednesday, March 20, 2013

  Actual Average Record
Temperature  
Mean Temperature 34 °F -  
Max Temperature 39 °F 58 °F 80 °F (1910)
Min Temperature 28 °F 38 °F 9 °F (1914)
Degree Days  
Heating Degree Days 32    
Moisture  
Dew Point 22 °F    
Average Humidity 62    
Maximum Humidity 85    
Minimum Humidity 44    
Precipitation  
Precipitation 0.00 in - - ()
Sea Level Pressure  
Sea Level Pressure 30.19 in    
Wind  
Wind Speed 7 mph (NW)    
Max Wind Speed 17 mph    
Max Gust Speed 28 mph    
Visibility 10 miles    
Events Snow    
Averages and records for this station are not official NWS values.
T = Trace of Precipitation, MM = Missing Value Source: NWS Daily Summary

Daily Weather History Graph

Daily Weather History Graph

Search for Another Location

Airport or City:

Trip Planner

Search our weather history database for the weather conditions in past years. The results will help you decide how hot, cold, wet, or windy it might be!

Date:

Astronomy

Mar. 20, 2013 Rise Set
Actual Time 7:00 AM CDT 7:09 PM CDT
Civil Twilight 6:33 AM CDT 7:35 PM CDT
Nautical Twilight 6:03 AM CDT 8:05 PM CDT
Astronomical Twilight 5:32 AM CDT 8:37 PM CDT
Moon 12:50 PM CDT (3/20) 2:34 AM CDT (3/20)
Length of Visible Light 13h 01m
Length of Day
12h 09m
First Quarter, 59% of the Moon is Illuminated
Mar 20
First Quarter
Mar 27
Full
Apr 2
Last Quarter
Apr 10
New
Apr 18
First Quarter

Hourly Weather History & Observations

Time (CDT) Temp. Windchill Dew Point Humidity Pressure Visibility Wind Dir Wind Speed Gust Speed Precip Events Conditions
12:52 AM 33.1 °F - 27.0 °F 78% 30.20 in 10.0 mi Calm Calm - N/A   Clear
1:52 AM 30.0 °F - 24.1 °F 79% 30.20 in 10.0 mi Calm Calm - N/A   Clear
2:52 AM 28.0 °F 24.2 °F 24.1 °F 85% 30.19 in 10.0 mi SW 3.5 mph - N/A   Clear
3:52 AM 28.9 °F 22.8 °F 24.1 °F 82% 30.17 in 10.0 mi WSW 5.8 mph - N/A   Clear
4:52 AM 32.0 °F - 26.1 °F 79% 30.17 in 10.0 mi Calm Calm - N/A   Clear
5:52 AM 34.0 °F 28.8 °F 28.0 °F 79% 30.18 in 10.0 mi WNW 5.8 mph - N/A   Clear
6:52 AM 34.0 °F 26.6 °F 28.9 °F 82% 30.20 in 10.0 mi NW 9.2 mph - N/A   Clear
7:52 AM 35.1 °F 29.3 °F 28.9 °F 78% 30.21 in 10.0 mi WNW 6.9 mph - N/A   Scattered Clouds
8:52 AM 36.0 °F 29.0 °F 28.0 °F 73% 30.24 in 10.0 mi NW 9.2 mph - N/A   Mostly Cloudy
8:59 AM 37.4 °F 31.4 °F 28.4 °F 70% 30.22 in 10.0 mi NNW 8.1 mph - N/A   Mostly Cloudy
9:37 AM 37.4 °F 28.5 °F 24.8 °F 60% 30.23 in 10.0 mi NNW 15.0 mph - N/A   Scattered Clouds
9:52 AM 37.9 °F 29.2 °F 25.0 °F 60% 30.25 in 10.0 mi NNW 15.0 mph - N/A   Partly Cloudy
10:52 AM 36.0 °F 26.3 °F 24.1 °F 62% 30.26 in 7.0 mi NNW 16.1 mph - 0.00 in Snow Light Snow
11:11 AM 33.8 °F 24.8 °F 24.8 °F 70% 30.24 in 4.0 mi NW 12.7 mph 20.7 mph 0.00 in Snow Light Snow
11:29 AM 35.6 °F 28.0 °F 23.0 °F 60% 30.25 in 10.0 mi NW 10.4 mph 17.3 mph 0.00 in   Overcast
11:52 AM 36.0 °F 28.5 °F 21.9 °F 57% 30.25 in 10.0 mi NNW 10.4 mph 19.6 mph 0.00 in   Mostly Cloudy
12:52 PM 37.9 °F 28.5 °F 19.9 °F 48% 30.23 in 10.0 mi NNW 17.3 mph 23.0 mph N/A   Mostly Cloudy
1:52 PM 37.0 °F 27.7 °F 19.0 °F 48% 30.21 in 10.0 mi NNW 16.1 mph 27.6 mph N/A   Mostly Cloudy
2:52 PM 39.0 °F 31.0 °F 19.9 °F 46% 30.18 in 10.0 mi NNW 13.8 mph 24.2 mph N/A   Mostly Cloudy
3:52 PM 39.0 °F 32.3 °F 19.0 °F 45% 30.16 in 10.0 mi NW 10.4 mph 21.9 mph N/A   Mostly Cloudy
4:52 PM 39.0 °F 30.6 °F 19.0 °F 45% 30.15 in 10.0 mi NNW 15.0 mph 20.7 mph N/A   Mostly Cloudy
5:52 PM 37.0 °F 28.1 °F 17.1 °F 44% 30.14 in 10.0 mi NNW 15.0 mph 27.6 mph N/A   Partly Cloudy
6:52 PM 35.1 °F 26.4 °F 16.0 °F 46% 30.16 in 10.0 mi NNW 12.7 mph - N/A   Clear
7:52 PM 33.1 °F 24.9 °F 15.1 °F 48% 30.15 in 10.0 mi NNW 10.4 mph - N/A   Clear
8:52 PM 30.9 °F 23.5 °F 15.1 °F 52% 30.16 in 10.0 mi NNW 8.1 mph - N/A   Clear
9:52 PM 28.9 °F 21.9 °F 14.0 °F 54% 30.15 in 10.0 mi NNW 6.9 mph - N/A   Clear
10:52 PM 28.0 °F 24.2 °F 14.0 °F 56% 30.15 in 10.0 mi NW 3.5 mph - N/A   Clear
11:52 PM 28.0 °F - 15.1 °F 58% 30.14 in 10.0 mi Calm Calm - N/A   Clear